OV1-9

Satellite information

Favourite Embed

Satellite Type and Status

PAYLOADIN ORBIT

Key statistics

Satellite OV1-9 at a glance.

Uptime

21500

Days in orbit

Revolutions

≈ 10.4

Per day

Orbit

HEO

HEO

Inclination

99.1

Latest

Satellite identification and parameters

Extended collection of information and parameters for OV1-9.

Object identification

Identified? True

Debris? False

Object name: OV1-9

International designator: 1966-111A

Object number (NORAD): 2610

Object ID (CCSDS): 2610

Country: UNITED STATES OF AMERICA (US)

Current information (Y/N): Y

RCS size: MEDIUM

Orbital parameters

Period: 138.527 minutes

Inclination: 99.1102 deg

SMA: 8868.494 km

Apoapsis: 4507.388 km

Periapsis: 473.33 km

RAAN: 204.193 deg

Eccentricy: 0.2274376

Argument of periapsis: 21.9861 deg

Mean anomaly: 346.4736 deg

Mean motion: 10.39508256 rev/day

Mean motion (dot): 0.0000166 rev/day2

B* drag term: 0.00065765 1/REarth

Two-line elements (TLE)

Creation date: Oct. 21, 2025, 11:56 p.m.

Reference frame: TEME

Reference center: EARTH

Epoch: Oct. 21, 2025, 5:45 p.m. UTC

TLE line 0: 0 OV1-9

TLE line 1: 1 2610U 66111A 25294.73978043 .00001660 00000-0 65765-3 0 9992

TLE line 2: 2 2610 99.1102 204.1930 2274376 21.9861 346.4736 10.39508256208259

Live tracking on map

Real-time ground track for satellite OV1-9.

In-orbit conjunctions

A list of the most updated potential collisions computed for object OV1-9.

Target Orbit TCA Probability of collision Miss distance Type
THORAD AGENA D DEB SSO 2025-03-29 08:27:56 0.0003651528 610.0 (m) DEBRIS
CZ-6A DEB LEO 2024-10-04 14:21:25 0.0001860079 176.0 (m) DEBRIS

Associated space launch

The OV1 (Orbiting Vehicle 1) were small research satellite to be launched piggy back on Atlas ICBM test flights. They consisted in general of the OV1 satellite and the OV1-PM propulsion module (or upper stage) to reach orbit.

OV1-9 was lifted into orbit during the mission ‘Atlas D | OV1-9 & 10’, on board a Atlas D space rocket.

The launch took place on Dec. 11, 1966, 9:09 p.m. from 576B3.

For more information about the launch, click the button.

Launch to space Atlas D | OV1-9 & 10
Atlas D | OV1-9 & 10

Agency: N/A

Status: Launch Successful

Launch date: Dec. 11, 1966, 9:09 p.m. UTC

Rocket: Atlas D

Launch pad: 576B3

Location: Vandenberg SFB, CA, USA

...

Latest news about this satellite

There are no fresh news available about this satellite. Check back as we update our databases every day.


Newsletter sign-up

Weekly statistics, charts and insights to help you stay on top of the space industry.